When you browse on this site, cookies collect data to enhance your experience and personalize the content and advertising you see.
Visit our Privacy Policy to learn more. By continuing to use the site, you agree to this use of cookies and data.
  • Em Portugal
  • Lista de países
  • Para 7 dias
  • Temperatura da água
  • Mapas de satélite
  • Mapa do tempo
  • Widgets de tempo
  • user-avatar
    Iniciar Sessão

    Previsão horária em Orlovichi

    Hoje, 20 Fevereiro, Quarta-feira

    Tempo Temperatura Precipitação Vento Pressão Humidade
    00:00 -1°C° 0 mm 6 m/s 739 mmHg 94%
    01:00 -1°C° 0 mm 5 m/s 739 mmHg 94%
    02:00 -1°C° 0 mm 6 m/s 738 mmHg 95%
    03:00 -1°C° 0 mm 5 m/s 738 mmHg 95%
    04:00 -1°C° 0 mm 5 m/s 738 mmHg 94%
    05:00 -1°C° 0 mm 4 m/s 738 mmHg 94%
    06:00 -1°C° 0 mm 4 m/s 738 mmHg 94%
    07:00 -1°C° 0 mm 4 m/s 738 mmHg 94%
    08:00 -2°C° 0 mm 4 m/s 737 mmHg 94%
    09:00 -1°C° 0.1 mm 5 m/s 737 mmHg 95%
    10:00 -1°C° 0.1 mm 5 m/s 737 mmHg 97%
    11:00 -1°C° 0.1 mm 5 m/s 737 mmHg 98%
    12:00 -1°C° 0 mm 6 m/s 737 mmHg 98%
    13:00 -1°C° 0 mm 6 m/s 737 mmHg 97%
    14:00 -1°C° 0 mm 6 m/s 737 mmHg 97%
    15:00 -1°C° 0.1 mm 6 m/s 736 mmHg 95%
    16:00 -1°C° 0.1 mm 6 m/s 736 mmHg 93%
    17:00 -1°C° 0.1 mm 7 m/s 736 mmHg 91%
    18:00 -1°C° 0.3 mm 7 m/s 736 mmHg 91%
    19:00 -1°C° 0.3 mm 7 m/s 736 mmHg 90%
    20:00 -1°C° 0.3 mm 7 m/s 736 mmHg 90%
    21:00 -3°C° 0.1 mm 7 m/s 736 mmHg 87%
    22:00 -5°C° 0.1 mm 6 m/s 736 mmHg 83%
    23:00 -8°C° 0.1 mm 6 m/s 737 mmHg 79%

    Amanhã, 21 Fevereiro, Quinta-feira

    Tempo Temperatura Precipitação Vento Pressão Humidade
    00:00 -8°C° 0 mm 7 m/s 737 mmHg 79%
    01:00 -8°C° 0 mm 7 m/s 738 mmHg 79%
    02:00 -8°C° 0 mm 7 m/s 738 mmHg 79%
    03:00 -9°C° 0 mm 7 m/s 739 mmHg 79%
    04:00 -9°C° 0 mm 7 m/s 739 mmHg 78%
    05:00 -11°C° 0 mm 7 m/s 739 mmHg 78%
    06:00 -11°C° 0 mm 7 m/s 740 mmHg 77%
    07:00 -11°C° 0 mm 7 m/s 740 mmHg 77%
    08:00 -11°C° 0 mm 7 m/s 740 mmHg 77%
    09:00 -9°C° 0 mm 7 m/s 741 mmHg 76%
    10:00 -10°C° 0 mm 8 m/s 741 mmHg 75%
    11:00 -8°C° 0 mm 8 m/s 742 mmHg 74%
    12:00 -8°C° 0.1 mm 8 m/s 742 mmHg 74%
    13:00 -8°C° 0.1 mm 8 m/s 743 mmHg 74%
    14:00 -7°C° 0.1 mm 7 m/s 744 mmHg 73%
    15:00 -8°C° 0 mm 7 m/s 744 mmHg 74%
    16:00 -8°C° 0 mm 6 m/s 745 mmHg 76%
    17:00 -8°C° 0 mm 5 m/s 745 mmHg 77%
    18:00 -8°C° 0 mm 5 m/s 745 mmHg 78%
    19:00 -10°C° 0 mm 5 m/s 746 mmHg 80%
    20:00 -10°C° 0 mm 5 m/s 747 mmHg 81%
    21:00 -10°C° 0 mm 4 m/s 747 mmHg 81%
    22:00 -11°C° 0 mm 4 m/s 747 mmHg 81%
    23:00 -11°C° 0 mm 4 m/s 748 mmHg 82%

    Depois de amanhã, 22 Fevereiro, Sexta-feira

    Tempo Temperatura Precipitação Vento Pressão Humidade
    00:00 -12°C° 0 mm 4 m/s 748 mmHg 82%
    01:00 -12°C° 0 mm 4 m/s 749 mmHg 82%
    02:00 -14°C° 0 mm 4 m/s 749 mmHg 83%
    03:00 -14°C° 0 mm 4 m/s 749 mmHg 82%
    04:00 -14°C° 0 mm 4 m/s 750 mmHg 82%
    05:00 -14°C° 0 mm 5 m/s 750 mmHg 82%
    06:00 -14°C° 0 mm 5 m/s 751 mmHg 80%
    07:00 -14°C° 0 mm 5 m/s 751 mmHg 79%
    08:00 -15°C° 0 mm 6 m/s 752 mmHg 77%
    09:00 -15°C° 0 mm 6 m/s 752 mmHg 74%
    10:00 -14°C° 0 mm 7 m/s 753 mmHg 71%
    11:00 -13°C° 0 mm 8 m/s 753 mmHg 68%
    12:00 -12°C° 0 mm 8 m/s 753 mmHg 68%
    13:00 -12°C° 0 mm 8 m/s 753 mmHg 69%
    14:00 -12°C° 0 mm 8 m/s 754 mmHg 69%
    15:00 -12°C° 0 mm 7 m/s 754 mmHg 70%
    16:00 -12°C° 0 mm 7 m/s 754 mmHg 71%
    17:00 -11°C° 0 mm 6 m/s 755 mmHg 72%
    18:00 -12°C° 0.1 mm 6 m/s 755 mmHg 74%
    19:00 -12°C° 0.1 mm 6 m/s 755 mmHg 77%
    20:00 -12°C° 0.1 mm 6 m/s 756 mmHg 80%
    21:00 -12°C° 0 mm 5 m/s 756 mmHg 79%
    22:00 -13°C° 0 mm 5 m/s 757 mmHg 78%
    23:00 -14°C° 0 mm 5 m/s 757 mmHg 78%

    23 Fevereiro, Sábado

    Tempo Temperatura Precipitação Vento Pressão Humidade
    00:00 -14°C° 0 mm 5 m/s 757 mmHg 79%
    01:00 -14°C° 0 mm 5 m/s 758 mmHg 80%
    02:00 -15°C° 0 mm 5 m/s 758 mmHg 81%
    03:00 -15°C° 0 mm 4 m/s 759 mmHg 83%
    04:00 -15°C° 0 mm 4 m/s 759 mmHg 84%
    05:00 -15°C° 0 mm 4 m/s 759 mmHg 86%
    06:00 -15°C° 0 mm 4 m/s 759 mmHg 86%
    07:00 -15°C° 0 mm 4 m/s 760 mmHg 86%
    08:00 -15°C° 0 mm 4 m/s 760 mmHg 87%
    09:00 -14°C° 0 mm 4 m/s 760 mmHg 84%
    10:00 -14°C° 0 mm 4 m/s 760 mmHg 82%
    11:00 -13°C° 0 mm 5 m/s 761 mmHg 79%
    12:00 -11°C° 0 mm 4 m/s 761 mmHg 77%
    13:00 -10°C° 0 mm 4 m/s 760 mmHg 74%
    14:00 -10°C° 0 mm 4 m/s 760 mmHg 72%
    15:00 -10°C° 0 mm 4 m/s 760 mmHg 74%
    16:00 -9°C° 0 mm 3 m/s 760 mmHg 76%
    17:00 -9°C° 0 mm 3 m/s 760 mmHg 79%
    18:00 -9°C° 0 mm 3 m/s 760 mmHg 80%
    19:00 -8°C° 0 mm 2 m/s 760 mmHg 81%
    20:00 -8°C° 0 mm 2 m/s 760 mmHg 82%
    21:00 -8°C° 0 mm 2 m/s 760 mmHg 83%
    22:00 -8°C° 0 mm 2 m/s 759 mmHg 83%
    23:00 -8°C° 0 mm 2 m/s 759 mmHg 84%

    24 Fevereiro, Domingo

    Tempo Temperatura Precipitação Vento Pressão Humidade
    00:00 -8°C° 0 mm 2 m/s 759 mmHg 86%
    01:00 -8°C° 0 mm 2 m/s 759 mmHg 88%
    02:00 -8°C° 0 mm 2 m/s 759 mmHg 90%
    03:00 -8°C° 0.1 mm 2 m/s 758 mmHg 92%
    04:00 -7°C° 0.1 mm 2 m/s 758 mmHg 93%
    05:00 -7°C° 0.1 mm 2 m/s 757 mmHg 94%
    06:00 -7°C° 0.1 mm 2 m/s 757 mmHg 95%
    07:00 -7°C° 0.1 mm 2 m/s 757 mmHg 95%
    08:00 -7°C° 0.1 mm 2 m/s 757 mmHg 95%
    09:00 -4°C° 0 mm 1 m/s 757 mmHg 93%
    10:00 -3°C° 0 mm 1 m/s 757 mmHg 92%
    11:00 -2°C° 0 mm 1 m/s 758 mmHg 90%
    12:00 -2°C° 0 mm 1 m/s 758 mmHg 89%
    13:00 -1°C° 0 mm 1 m/s 758 mmHg 89%
    14:00 -1°C° 0 mm 1 m/s 758 mmHg 88%
    15:00 -1°C° 0 mm 1 m/s 758 mmHg 90%
    16:00 -1°C° 0 mm 1 m/s 758 mmHg 92%
    17:00 -1°C° 0 mm 1 m/s 758 mmHg 94%
    18:00 -1°C° 0 mm 1 m/s 758 mmHg 94%
    19:00 -1°C° 0 mm 1 m/s 758 mmHg 95%
    20:00 -1°C° 0 mm 1 m/s 758 mmHg 95%
    21:00 -1°C° 0 mm 1 m/s 758 mmHg 96%
    22:00 -1°C° 0 mm 1 m/s 758 mmHg 96%
    23:00 -1°C° 0 mm 1 m/s 758 mmHg 96%

    25 Fevereiro, Segunda-feira

    Tempo Temperatura Precipitação Vento Pressão Humidade
    00:00 -1°C° 0 mm 1 m/s 758 mmHg 96%
    01:00 -1°C° 0 mm 1 m/s 757 mmHg 96%
    02:00 -1°C° 0 mm 1 m/s 757 mmHg 96%
    03:00 -1°C° 0 mm 1 m/s 757 mmHg 96%
    04:00 -1°C° 0 mm 1 m/s 756 mmHg 96%
    05:00 -3°C° 0 mm 2 m/s 756 mmHg 96%
    06:00 -3°C° 0 mm 2 m/s 755 mmHg 96%
    07:00 -3°C° 0 mm 2 m/s 755 mmHg 96%
    08:00 -3°C° 0 mm 2 m/s 755 mmHg 96%
    09:00 -4°C° 0 mm 3 m/s 754 mmHg 95%
    10:00 -2°C° 0 mm 3 m/s 754 mmHg 94%
    11:00 -2°C° 0 mm 3 m/s 754 mmHg 93%
    12:00 -1°C° 0.1 mm 3 m/s 753 mmHg 95%
    13:00 -1°C° 0.1 mm 3 m/s 753 mmHg 96%
    14:00 0°C° 0.1 mm 3 m/s 752 mmHg 97%
    15:00 -1°C° 0 mm 4 m/s 752 mmHg 94%
    16:00 -1°C° 0 mm 4 m/s 752 mmHg 91%
    17:00 -2°C° 0 mm 4 m/s 751 mmHg 89%
    18:00 -2°C° 0 mm 4 m/s 751 mmHg 88%
    19:00 -2°C° 0 mm 5 m/s 751 mmHg 87%
    20:00 -2°C° 0 mm 5 m/s 751 mmHg 86%
    21:00 -3°C° 0 mm 4 m/s 751 mmHg 87%
    22:00 -3°C° 0 mm 4 m/s 751 mmHg 88%
    23:00 -3°C° 0 mm 4 m/s 751 mmHg 89%
    Mostrar mais